Time,TemperatureF,DewpointF,PressureIn,WindDirection,WindDirectionDegrees,WindSpeedMPH,WindSpeedGustMPH,Humidity,HourlyPrecipIn,Conditions,Clouds,dailyrainin,SoftwareType,DateUTC
2014-02-01 00:01:00,31.8,0.0,30.12,West,270,0.0,1.0,0,0.00,,,0.00,Weather View 32 v70,2014-02-01 05:01:00,
2014-02-01 00:02:00,31.8,0.0,30.12,West,270,0.0,1.0,0,0.00,,,0.00,Weather View 32 v70,2014-02-01 05:02:00,
2014-02-01 00:07:00,31.6,0.0,30.12,West,270,0.0,1.0,0,0.00,,,0.00,Weather View 32 v70,2014-02-01 05:07:00,
2014-02-01 00:12:00,31.3,0.0,30.12,West,270,0.0,1.0,0,0.00,,,0.00,Weather View 32 v70,2014-02-01 05:12:00,
2014-02-01 00:17:00,31.5,0.0,30.12,West,270,0.0,1.0,0,0.00,,,0.00,Weather View 32 v70,2014-02-01 05:17:00,
2014-02-01 00:22:00,31.3,0.0,30.11,West,270,0.0,0.0,0,0.00,,,0.00,Weather View 32 v70,2014-02-01 05:22:00,
2014-02-01 00:27:00,31.1,0.0,30.11,West,270,0.0,0.0,0,0.00,,,0.00,Weather View 32 v70,2014-02-01 05:27:00,
2014-02-01 00:30:00,30.9,0.0,30.10,West,270,0.0,0.0,0,0.00,,,0.00,Weather View 32 v70,2014-02-01 05:30:00,
2014-02-01 00:35:00,30.6,0.0,30.11,West,270,0.0,0.0,0,0.00,,,0.00,Weather View 32 v70,2014-02-01 05:35:00,
2014-02-01 00:40:00,30.0,0.0,30.11,West,270,0.0,0.0,0,0.00,,,0.00,Weather View 32 v70,2014-02-01 05:40:00,
2014-02-01 00:45:00,29.7,0.0,30.11,West,270,0.0,0.0,0,0.00,,,0.00,Weather View 32 v70,2014-02-01 05:45:00,
2014-02-01 00:50:00,29.7,0.0,30.11,West,270,0.0,0.0,0,0.00,,,0.00,Weather View 32 v70,2014-02-01 05:50:00,
2014-02-01 00:55:00,29.5,0.0,30.10,West,270,0.0,0.0,0,0.00,,,0.00,Weather View 32 v70,2014-02-01 05:55:00,
2014-02-01 01:00:00,29.1,0.0,30.10,West,270,0.0,0.0,0,0.00,,,0.00,Weather View 32 v70,2014-02-01 06:00:00,
2014-02-01 01:05:00,29.1,0.0,30.11,West,270,0.0,0.0,0,0.00,,,0.00,Weather View 32 v70,2014-02-01 06:05:00,
2014-02-01 01:10:00,28.9,0.0,30.11,West,270,0.0,0.0,0,0.00,,,0.00,Weather View 32 v70,2014-02-01 06:10:00,
2014-02-01 01:14:00,28.9,0.0,30.12,West,270,0.0,0.0,0,0.00,,,0.00,Weather View 32 v70,2014-02-01 06:14:00,
2014-02-01 01:19:00,28.9,0.0,30.12,West,270,0.0,0.0,0,0.00,,,0.00,Weather View 32 v70,2014-02-01 06:19:00,
2014-02-01 01:24:00,28.8,0.0,30.11,West,270,0.0,0.0,0,0.00,,,0.00,Weather View 32 v70,2014-02-01 06:24:00,
2014-02-01 01:29:00,28.6,0.0,30.11,West,270,0.0,0.0,0,0.00,,,0.00,Weather View 32 v70,2014-02-01 06:29:00,
2014-02-01 01:34:00,28.6,0.0,30.12,West,270,0.0,0.0,0,0.00,,,0.00,Weather View 32 v70,2014-02-01 06:34:00,
2014-02-01 01:39:00,28.6,0.0,30.12,West,270,0.0,0.0,0,0.00,,,0.00,Weather View 32 v70,2014-02-01 06:39:00,
2014-02-01 01:44:00,28.6,0.0,30.12,West,270,0.0,0.0,0,0.00,,,0.00,Weather View 32 v70,2014-02-01 06:44:00,
2014-02-01 01:49:00,28.6,0.0,30.12,West,270,0.0,0.0,0,0.00,,,0.00,Weather View 32 v70,2014-02-01 06:49:00,
2014-02-01 01:54:00,28.4,0.0,30.11,West,270,0.0,0.0,0,0.00,,,0.00,Weather View 32 v70,2014-02-01 06:54:00,
2014-02-01 01:59:00,28.0,0.0,30.12,West,270,0.0,0.0,0,0.00,,,0.00,Weather View 32 v70,2014-02-01 06:59:00,
2014-02-01 02:04:00,28.0,0.0,30.12,West,270,0.0,0.0,0,0.00,,,0.00,Weather View 32 v70,2014-02-01 07:04:00,
2014-02-01 02:09:00,27.9,0.0,30.12,West,270,0.0,0.0,0,0.00,,,0.00,Weather View 32 v70,2014-02-01 07:09:00,
2014-02-01 02:14:00,27.9,0.0,30.11,West,270,0.0,0.0,0,0.00,,,0.00,Weather View 32 v70,2014-02-01 07:14:00,
2014-02-01 02:19:00,27.9,0.0,30.12,West,270,0.0,0.0,0,0.00,,,0.00,Weather View 32 v70,2014-02-01 07:19:00,
2014-02-01 02:24:00,27.9,0.0,30.11,West,270,0.0,0.0,0,0.00,,,0.00,Weather View 32 v70,2014-02-01 07:24:00,
2014-02-01 02:29:00,27.7,0.0,30.12,West,270,0.0,0.0,0,0.00,,,0.00,Weather View 32 v70,2014-02-01 07:29:00,
2014-02-01 02:34:00,27.7,0.0,30.12,West,270,0.0,0.0,0,0.00,,,0.00,Weather View 32 v70,2014-02-01 07:34:00,
2014-02-01 02:39:00,27.9,0.0,30.12,West,270,0.0,0.0,0,0.00,,,0.00,Weather View 32 v70,2014-02-01 07:39:00,
2014-02-01 02:44:00,27.7,0.0,30.12,West,270,0.0,0.0,0,0.00,,,0.00,Weather View 32 v70,2014-02-01 07:44:00,
2014-02-01 02:49:00,27.5,0.0,30.13,West,270,0.0,0.0,0,0.00,,,0.00,Weather View 32 v70,2014-02-01 07:49:00,
2014-02-01 02:54:00,27.1,0.0,30.19,WNW,293,0.0,0.0,0,0.00,,,0.00,Weather View 32 v70,2014-02-01 07:54:00,
2014-02-01 02:59:00,27.1,0.0,30.21,WNW,293,0.0,0.0,0,0.00,,,0.00,Weather View 32 v70,2014-02-01 07:59:00,
2014-02-01 03:04:00,27.3,0.0,30.20,WNW,293,0.0,0.0,0,0.00,,,0.00,Weather View 32 v70,2014-02-01 08:04:00,
2014-02-01 03:09:00,27.1,0.0,30.20,WNW,293,0.0,0.0,0,0.00,,,0.00,Weather View 32 v70,2014-02-01 08:09:00,
2014-02-01 03:14:00,27.3,0.0,30.19,WNW,293,0.0,0.0,0,0.00,,,0.00,Weather View 32 v70,2014-02-01 08:14:00,
2014-02-01 03:19:00,27.1,0.0,30.20,WNW,293,0.0,0.0,0,0.00,,,0.00,Weather View 32 v70,2014-02-01 08:19:00,
2014-02-01 03:24:00,27.0,0.0,30.19,WNW,293,0.0,0.0,0,0.00,,,0.00,Weather View 32 v70,2014-02-01 08:24:00,
2014-02-01 03:29:00,27.0,0.0,30.19,WNW,293,0.0,0.0,0,0.00,,,0.00,Weather View 32 v70,2014-02-01 08:29:00,
2014-02-01 03:33:00,26.8,0.0,30.19,WNW,293,0.0,0.0,0,0.00,,,0.00,Weather View 32 v70,2014-02-01 08:33:00,
2014-02-01 03:38:00,26.8,0.0,30.20,WNW,293,0.0,0.0,0,0.00,,,0.00,Weather View 32 v70,2014-02-01 08:38:00,
2014-02-01 03:43:00,26.6,0.0,30.20,WNW,293,0.0,0.0,0,0.00,,,0.00,Weather View 32 v70,2014-02-01 08:43:00,
2014-02-01 03:48:00,26.8,0.0,30.19,WNW,293,0.0,0.0,0,0.00,,,0.00,Weather View 32 v70,2014-02-01 08:48:00,
2014-02-01 03:53:00,26.8,0.0,30.21,WNW,293,0.0,0.0,0,0.00,,,0.00,Weather View 32 v70,2014-02-01 08:53:00,
2014-02-01 03:58:00,26.8,0.0,30.19,WNW,293,0.0,0.0,0,0.00,,,0.00,Weather View 32 v70,2014-02-01 08:58:00,
2014-02-01 04:03:00,26.8,0.0,30.19,WNW,293,0.0,0.0,0,0.00,,,0.00,Weather View 32 v70,2014-02-01 09:03:00,
2014-02-01 04:08:00,26.6,0.0,30.19,WNW,293,0.0,0.0,0,0.00,,,0.00,Weather View 32 v70,2014-02-01 09:08:00,
2014-02-01 04:13:00,26.6,0.0,30.19,WNW,293,0.0,0.0,0,0.00,,,0.00,Weather View 32 v70,2014-02-01 09:13:00,
2014-02-01 04:18:00,26.2,0.0,30.19,WNW,293,0.0,0.0,0,0.00,,,0.00,Weather View 32 v70,2014-02-01 09:18:00,
2014-02-01 04:23:00,26.2,0.0,30.19,WNW,293,0.0,0.0,0,0.00,,,0.00,Weather View 32 v70,2014-02-01 09:23:00,
2014-02-01 04:28:00,26.2,0.0,30.19,WNW,293,0.0,0.0,0,0.00,,,0.00,Weather View 32 v70,2014-02-01 09:28:00,
2014-02-01 04:33:00,26.2,0.0,30.19,WNW,293,0.0,0.0,0,0.00,,,0.00,Weather View 32 v70,2014-02-01 09:33:00,
2014-02-01 04:38:00,26.2,0.0,30.20,WNW,293,0.0,0.0,0,0.00,,,0.00,Weather View 32 v70,2014-02-01 09:38:00,
2014-02-01 04:43:00,26.2,0.0,30.19,WNW,293,0.0,0.0,0,0.00,,,0.00,Weather View 32 v70,2014-02-01 09:43:00,
2014-02-01 04:48:00,26.2,0.0,30.19,WNW,293,0.0,0.0,0,0.00,,,0.00,Weather View 32 v70,2014-02-01 09:48:00,
2014-02-01 04:53:00,26.1,0.0,30.20,WNW,293,0.0,0.0,0,0.00,,,0.00,Weather View 32 v70,2014-02-01 09:53:00,
2014-02-01 04:58:00,26.1,0.0,30.20,WNW,293,0.0,0.0,0,0.00,,,0.00,Weather View 32 v70,2014-02-01 09:58:00,
2014-02-01 05:03:00,26.1,0.0,30.19,WNW,293,0.0,0.0,0,0.00,,,0.00,Weather View 32 v70,2014-02-01 10:03:00,
2014-02-01 05:08:00,26.1,0.0,30.20,WNW,293,0.0,0.0,0,0.00,,,0.00,Weather View 32 v70,2014-02-01 10:08:00,
2014-02-01 05:13:00,25.9,0.0,30.20,WNW,293,0.0,0.0,0,0.00,,,0.00,Weather View 32 v70,2014-02-01 10:13:00,
2014-02-01 05:18:00,25.5,0.0,30.19,WNW,293,0.0,0.0,0,0.00,,,0.00,Weather View 32 v70,2014-02-01 10:18:00,
2014-02-01 05:23:00,25.5,0.0,30.20,WNW,293,0.0,0.0,0,0.00,,,0.00,Weather View 32 v70,2014-02-01 10:23:00,
2014-02-01 05:28:00,25.5,0.0,30.21,WNW,293,0.0,0.0,0,0.00,,,0.00,Weather View 32 v70,2014-02-01 10:28:00,
2014-02-01 05:33:00,25.7,0.0,30.20,WNW,293,0.0,0.0,0,0.00,,,0.00,Weather View 32 v70,2014-02-01 10:33:00,
2014-02-01 05:38:00,25.7,0.0,30.20,WNW,293,0.0,0.0,0,0.00,,,0.00,Weather View 32 v70,2014-02-01 10:38:00,
2014-02-01 05:43:00,25.5,0.0,30.20,WNW,293,0.0,0.0,0,0.00,,,0.00,Weather View 32 v70,2014-02-01 10:43:00,
2014-02-01 05:48:00,25.5,0.0,30.21,WNW,293,0.0,0.0,0,0.00,,,0.00,Weather View 32 v70,2014-02-01 10:48:00,
2014-02-01 05:53:00,25.5,0.0,30.21,WNW,293,0.0,0.0,0,0.00,,,0.00,Weather View 32 v70,2014-02-01 10:53:00,
2014-02-01 05:58:00,25.5,0.0,30.22,WNW,293,0.0,0.0,0,0.00,,,0.00,Weather View 32 v70,2014-02-01 10:58:00,
2014-02-01 06:03:00,25.7,0.0,30.21,WNW,293,0.0,1.0,0,0.00,,,0.00,Weather View 32 v70,2014-02-01 11:03:00,
2014-02-01 06:08:00,25.7,0.0,30.21,WNW,293,0.0,1.0,0,0.00,,,0.00,Weather View 32 v70,2014-02-01 11:08:00,
2014-02-01 06:13:00,25.7,0.0,30.22,WNW,293,0.0,1.0,0,0.00,,,0.00,Weather View 32 v70,2014-02-01 11:13:00,
2014-02-01 06:18:00,25.5,0.0,30.14,West,270,0.0,1.0,0,0.00,,,0.00,Weather View 32 v70,2014-02-01 11:18:00,
2014-02-01 06:23:00,25.2,0.0,30.16,West,270,0.0,1.0,0,0.00,,,0.00,Weather View 32 v70,2014-02-01 11:23:00,
2014-02-01 06:28:00,25.3,0.0,30.15,West,270,0.0,1.0,0,0.00,,,0.00,Weather View 32 v70,2014-02-01 11:28:00,
2014-02-01 06:33:00,25.2,0.0,30.22,NW,315,2.0,2.0,0,0.00,,,0.00,Weather View 32 v70,2014-02-01 11:33:00,
2014-02-01 06:38:00,25.3,0.0,30.22,NW,315,0.0,2.0,0,0.00,,,0.00,Weather View 32 v70,2014-02-01 11:38:00,
2014-02-01 06:43:00,25.3,0.0,30.23,NW,315,0.0,2.0,0,0.00,,,0.00,Weather View 32 v70,2014-02-01 11:43:00,
2014-02-01 06:48:00,25.3,0.0,30.23,NW,315,0.0,2.0,0,0.00,,,0.00,Weather View 32 v70,2014-02-01 11:48:00,
2014-02-01 06:53:00,25.2,0.0,30.23,NW,315,0.0,2.0,0,0.00,,,0.00,Weather View 32 v70,2014-02-01 11:53:00,
2014-02-01 06:58:00,25.0,0.0,30.23,WNW,293,0.0,2.0,0,0.00,,,0.00,Weather View 32 v70,2014-02-01 11:58:00,
2014-02-01 07:03:00,24.6,0.0,30.24,WNW,293,0.0,2.0,0,0.00,,,0.00,Weather View 32 v70,2014-02-01 12:03:00,
2014-02-01 07:08:00,24.6,0.0,30.24,WNW,293,0.0,2.0,0,0.00,,,0.00,Weather View 32 v70,2014-02-01 12:08:00,
2014-02-01 07:13:00,24.4,0.0,30.24,WNW,293,0.0,2.0,0,0.00,,,0.00,Weather View 32 v70,2014-02-01 12:13:00,
2014-02-01 07:18:00,24.4,0.0,30.23,WNW,293,0.0,2.0,0,0.00,,,0.00,Weather View 32 v70,2014-02-01 12:18:00,
2014-02-01 07:23:00,24.6,0.0,30.23,NW,315,0.0,2.0,0,0.00,,,0.00,Weather View 32 v70,2014-02-01 12:23:00,
2014-02-01 07:28:00,24.8,0.0,30.22,NW,315,0.0,2.0,0,0.00,,,0.00,Weather View 32 v70,2014-02-01 12:28:00,
2014-02-01 07:33:00,25.0,0.0,30.23,NW,315,0.0,2.0,0,0.00,,,0.00,Weather View 32 v70,2014-02-01 12:33:00,
2014-02-01 07:38:00,24.8,0.0,30.23,NW,315,0.0,2.0,0,0.00,,,0.00,Weather View 32 v70,2014-02-01 12:38:00,
2014-02-01 07:43:00,25.2,0.0,30.23,NW,315,0.0,2.0,0,0.00,,,0.00,Weather View 32 v70,2014-02-01 12:43:00,
2014-02-01 07:48:00,25.2,0.0,30.22,NW,315,0.0,2.0,0,0.00,,,0.00,Weather View 32 v70,2014-02-01 12:48:00,
2014-02-01 07:53:00,25.5,0.0,30.24,NW,315,0.0,2.0,0,0.00,,,0.00,Weather View 32 v70,2014-02-01 12:53:00,
2014-02-01 07:58:00,25.5,0.0,30.24,WNW,293,0.0,2.0,0,0.00,,,0.00,Weather View 32 v70,2014-02-01 12:58:00,
2014-02-01 08:03:00,25.7,0.0,30.25,WNW,293,0.0,2.0,0,0.00,,,0.00,Weather View 32 v70,2014-02-01 13:03:00,
2014-02-01 08:08:00,25.9,0.0,30.24,WNW,293,0.0,2.0,0,0.00,,,0.00,Weather View 32 v70,2014-02-01 13:08:00,
2014-02-01 08:13:00,26.1,0.0,30.25,WNW,293,0.0,2.0,0,0.00,,,0.00,Weather View 32 v70,2014-02-01 13:13:00,
2014-02-01 08:18:00,26.6,0.0,30.25,WNW,293,0.0,2.0,0,0.00,,,0.00,Weather View 32 v70,2014-02-01 13:18:00,
2014-02-01 08:23:00,27.1,0.0,30.24,WNW,293,0.0,1.0,0,0.00,,,0.00,Weather View 32 v70,2014-02-01 13:23:00,
2014-02-01 08:28:00,27.9,0.0,30.25,WNW,293,0.0,1.0,0,0.00,,,0.00,Weather View 32 v70,2014-02-01 13:28:00,
2014-02-01 08:33:00,28.6,0.0,30.25,WNW,293,0.0,1.0,0,0.00,,,0.00,Weather View 32 v70,2014-02-01 13:33:00,
2014-02-01 08:38:00,29.3,0.0,30.24,WNW,293,0.0,1.0,0,0.00,,,0.00,Weather View 32 v70,2014-02-01 13:38:00,
2014-02-01 08:43:00,30.4,0.0,30.25,WNW,293,0.0,1.0,0,0.00,,,0.00,Weather View 32 v70,2014-02-01 13:43:00,
2014-02-01 08:48:00,31.5,0.0,30.23,WNW,293,1.0,1.0,0,0.00,,,0.00,Weather View 32 v70,2014-02-01 13:48:00,
2014-02-01 08:53:00,32.5,0.0,30.23,NW,315,0.0,2.0,0,0.00,,,0.00,Weather View 32 v70,2014-02-01 13:53:00,
2014-02-01 08:58:00,33.8,0.0,30.17,North,0,0.0,2.0,0,0.00,,,0.00,Weather View 32 v70,2014-02-01 13:58:00,
2014-02-01 09:03:00,35.1,0.0,30.20,NNE,23,1.0,2.0,0,0.00,,,0.00,Weather View 32 v70,2014-02-01 14:03:00,
2014-02-01 09:08:00,36.1,0.0,30.26,NNW,338,0.0,3.0,0,0.00,,,0.00,Weather View 32 v70,2014-02-01 14:08:00,
2014-02-01 09:13:00,37.0,0.0,30.22,NNW,338,1.0,3.0,0,0.00,,,0.00,Weather View 32 v70,2014-02-01 14:13:00,
2014-02-01 09:18:00,37.9,0.0,30.21,North,0,4.0,4.0,0,0.00,,,0.00,Weather View 32 v70,2014-02-01 14:18:00,
2014-02-01 09:23:00,38.8,0.0,30.24,NW,315,0.0,5.0,0,0.00,,,0.00,Weather View 32 v70,2014-02-01 14:23:00,
2014-02-01 09:28:00,40.1,0.0,30.21,NNE,23,2.0,5.0,0,0.00,,,0.00,Weather View 32 v70,2014-02-01 14:28:00,
2014-02-01 09:33:00,40.5,0.0,30.25,NNE,23,4.0,6.0,0,0.00,,,0.00,Weather View 32 v70,2014-02-01 14:33:00,
2014-02-01 09:38:00,41.0,0.0,30.21,NW,315,0.0,6.0,0,0.00,,,0.00,Weather View 32 v70,2014-02-01 14:38:00,
2014-02-01 09:43:00,41.9,0.0,30.23,NNE,23,1.0,6.0,0,0.00,,,0.00,Weather View 32 v70,2014-02-01 14:43:00,
2014-02-01 09:48:00,42.6,0.0,30.22,North,0,3.0,6.0,0,0.00,,,0.00,Weather View 32 v70,2014-02-01 14:48:00,
2014-02-01 09:53:00,43.3,0.0,30.24,NW,315,1.0,6.0,0,0.00,,,0.00,Weather View 32 v70,2014-02-01 14:53:00,
2014-02-01 09:54:00,43.3,0.0,30.24,North,0,1.0,6.0,0,0.00,,,0.00,Weather View 32 v70,2014-02-01 14:54:00,
2014-02-01 09:59:00,43.9,0.0,30.21,NW,315,0.0,6.0,0,0.00,,,0.00,Weather View 32 v70,2014-02-01 14:59:00,
2014-02-01 10:04:00,44.8,0.0,30.24,NE,45,2.0,6.0,0,0.00,,,0.00,Weather View 32 v70,2014-02-01 15:04:00,
2014-02-01 10:09:00,45.0,0.0,30.23,NNE,23,2.0,6.0,0,0.00,,,0.00,Weather View 32 v70,2014-02-01 15:09:00,
2014-02-01 10:14:00,45.5,0.0,30.23,North,0,2.0,6.0,0,0.00,,,0.00,Weather View 32 v70,2014-02-01 15:14:00,
2014-02-01 10:19:00,46.2,0.0,30.22,North,0,3.0,6.0,0,0.00,,,0.00,Weather View 32 v70,2014-02-01 15:19:00,
2014-02-01 10:24:00,46.6,0.0,30.24,WNW,293,0.0,6.0,0,0.00,,,0.00,Weather View 32 v70,2014-02-01 15:24:00,
2014-02-01 10:29:00,48.4,0.0,30.19,SE,135,2.0,6.0,0,0.00,,,0.00,Weather View 32 v70,2014-02-01 15:29:00,
2014-02-01 10:34:00,49.5,0.0,30.23,WNW,293,0.0,6.0,0,0.00,,,0.00,Weather View 32 v70,2014-02-01 15:34:00,
2014-02-01 10:39:00,50.2,0.0,30.20,WNW,293,1.0,5.0,0,0.00,,,0.00,Weather View 32 v70,2014-02-01 15:39:00,
2014-02-01 10:44:00,50.7,0.0,30.20,ENE,68,2.0,5.0,0,0.00,,,0.00,Weather View 32 v70,2014-02-01 15:44:00,
2014-02-01 10:49:00,51.4,0.0,30.16,North,0,4.0,5.0,0,0.00,,,0.00,Weather View 32 v70,2014-02-01 15:49:00,
2014-02-01 10:54:00,52.0,0.0,30.18,North,0,1.0,5.0,0,0.00,,,0.00,Weather View 32 v70,2014-02-01 15:54:00,
2014-02-01 10:59:00,52.2,0.0,30.22,ENE,68,1.0,5.0,0,0.00,,,0.00,Weather View 32 v70,2014-02-01 15:59:00,
2014-02-01 11:04:00,52.3,0.0,30.21,ESE,113,2.0,5.0,0,0.00,,,0.00,Weather View 32 v70,2014-02-01 16:04:00,
2014-02-01 11:09:00,52.9,0.0,30.23,SE,135,1.0,5.0,0,0.00,,,0.00,Weather View 32 v70,2014-02-01 16:09:00,
2014-02-01 11:14:00,52.7,0.0,30.18,North,0,0.0,5.0,0,0.00,,,0.00,Weather View 32 v70,2014-02-01 16:14:00,
2014-02-01 11:19:00,53.2,0.0,30.18,North,0,4.0,5.0,0,0.00,,,0.00,Weather View 32 v70,2014-02-01 16:19:00,
2014-02-01 11:24:00,54.0,0.0,30.16,North,0,1.0,5.0,0,0.00,,,0.00,Weather View 32 v70,2014-02-01 16:24:00,
2014-02-01 11:29:00,54.5,0.0,30.15,North,0,1.0,5.0,0,0.00,,,0.00,Weather View 32 v70,2014-02-01 16:29:00,
2014-02-01 11:34:00,54.7,0.0,30.16,North,0,3.0,6.0,0,0.00,,,0.00,Weather View 32 v70,2014-02-01 16:34:00,
2014-02-01 11:39:00,54.9,0.0,30.13,West,270,0.0,6.0,0,0.00,,,0.00,Weather View 32 v70,2014-02-01 16:39:00,
2014-02-01 11:44:00,54.9,0.0,30.18,NNE,23,2.0,6.0,0,0.00,,,0.00,Weather View 32 v70,2014-02-01 16:44:00,
2014-02-01 11:49:00,54.7,0.0,30.16,ENE,68,4.0,7.0,0,0.00,,,0.00,Weather View 32 v70,2014-02-01 16:49:00,
2014-02-01 11:54:00,54.9,0.0,30.18,NNE,23,2.0,7.0,0,0.00,,,0.00,Weather View 32 v70,2014-02-01 16:54:00,
2014-02-01 11:59:00,54.5,0.0,30.17,NW,315,0.0,7.0,0,0.00,,,0.00,Weather View 32 v70,2014-02-01 16:59:00,
2014-02-01 12:04:00,55.2,0.0,30.19,WNW,293,0.0,7.0,0,0.00,,,0.00,Weather View 32 v70,2014-02-01 17:04:00,
2014-02-01 12:09:00,56.3,0.0,30.14,ESE,113,4.0,7.0,0,0.00,,,0.00,Weather View 32 v70,2014-02-01 17:09:00,
2014-02-01 12:14:00,56.7,0.0,30.13,North,0,2.0,7.0,0,0.00,,,0.00,Weather View 32 v70,2014-02-01 17:14:00,
2014-02-01 12:19:00,56.8,0.0,30.11,West,270,0.0,7.0,0,0.00,,,0.00,Weather View 32 v70,2014-02-01 17:19:00,
2014-02-01 12:24:00,57.6,0.0,30.16,North,0,2.0,7.0,0,0.00,,,0.00,Weather View 32 v70,2014-02-01 17:24:00,
2014-02-01 12:29:00,57.7,0.0,30.15,SE,135,2.0,7.0,0,0.00,,,0.00,Weather View 32 v70,2014-02-01 17:29:00,
2014-02-01 12:34:00,56.5,0.0,30.15,NNE,23,2.0,7.0,0,0.00,,,0.00,Weather View 32 v70,2014-02-01 17:34:00,
2014-02-01 12:39:00,55.6,0.0,30.17,North,0,1.0,7.0,0,0.00,,,0.00,Weather View 32 v70,2014-02-01 17:39:00,
2014-02-01 12:44:00,55.8,0.0,30.15,ENE,68,1.0,7.0,0,0.00,,,0.00,Weather View 32 v70,2014-02-01 17:44:00,
2014-02-01 12:49:00,56.7,0.0,30.15,West,270,0.0,7.0,0,0.00,,,0.00,Weather View 32 v70,2014-02-01 17:49:00,
2014-02-01 12:54:00,57.0,0.0,30.09,West,270,0.0,6.0,0,0.00,,,0.00,Weather View 32 v70,2014-02-01 17:54:00,
2014-02-01 12:59:00,57.4,0.0,30.09,North,0,1.0,6.0,0,0.00,,,0.00,Weather View 32 v70,2014-02-01 17:59:00,
2014-02-01 13:04:00,57.2,0.0,30.09,West,270,1.0,6.0,0,0.00,,,0.00,Weather View 32 v70,2014-02-01 18:04:00,
2014-02-01 13:09:00,56.5,0.0,30.10,West,270,0.0,6.0,0,0.00,,,0.00,Weather View 32 v70,2014-02-01 18:09:00,
2014-02-01 13:14:00,56.5,0.0,30.10,West,270,0.0,6.0,0,0.00,,,0.00,Weather View 32 v70,2014-02-01 18:14:00,
2014-02-01 13:19:00,56.5,0.0,30.09,West,270,0.0,6.0,0,0.00,,,0.00,Weather View 32 v70,2014-02-01 18:19:00,
2014-02-01 13:24:00,56.5,0.0,30.11,West,270,0.0,6.0,0,0.00,,,0.00,Weather View 32 v70,2014-02-01 18:24:00,
2014-02-01 13:29:00,56.5,0.0,30.13,West,270,0.0,6.0,0,0.00,,,0.00,Weather View 32 v70,2014-02-01 18:29:00,
2014-02-01 13:34:00,56.7,0.0,30.13,West,270,0.0,6.0,0,0.00,,,0.00,Weather View 32 v70,2014-02-01 18:34:00,
2014-02-01 13:39:00,56.5,0.0,30.13,SE,135,0.0,6.0,0,0.00,,,0.00,Weather View 32 v70,2014-02-01 18:39:00,
2014-02-01 13:44:00,56.3,0.0,30.11,North,0,1.0,5.0,0,0.00,,,0.00,Weather View 32 v70,2014-02-01 18:44:00,
2014-02-01 13:49:00,55.8,0.0,30.13,ESE,113,0.0,5.0,0,0.00,,,0.00,Weather View 32 v70,2014-02-01 18:49:00,
2014-02-01 13:54:00,56.1,0.0,30.15,ESE,113,0.0,5.0,0,0.00,,,0.00,Weather View 32 v70,2014-02-01 18:54:00,
2014-02-01 13:59:00,57.0,0.0,30.07,West,270,0.0,4.0,0,0.00,,,0.00,Weather View 32 v70,2014-02-01 18:59:00,
2014-02-01 14:04:00,56.7,0.0,30.13,North,0,1.0,6.0,0,0.00,,,0.00,Weather View 32 v70,2014-02-01 19:04:00,
2014-02-01 14:09:00,57.2,0.0,30.10,ESE,113,2.0,6.0,0,0.00,,,0.00,Weather View 32 v70,2014-02-01 19:09:00,
2014-02-01 15:10:00,59.0,0.0,30.04,North,0,0.0,1.0,0,0.00,,,0.00,Weather View 32 v70,2014-02-01 20:10:00,
2014-02-01 15:15:00,59.0,0.0,30.05,North,0,2.0,3.0,0,0.00,,,0.00,Weather View 32 v70,2014-02-01 20:15:00,
2014-02-01 15:20:00,58.8,0.0,30.03,West,270,0.0,3.0,0,0.00,,,0.00,Weather View 32 v70,2014-02-01 20:20:00,
2014-02-01 15:25:00,58.6,0.0,30.04,West,270,0.0,3.0,0,0.00,,,0.00,Weather View 32 v70,2014-02-01 20:25:00,
2014-02-01 15:30:00,58.8,0.0,30.06,West,270,0.0,4.0,0,0.00,,,0.00,Weather View 32 v70,2014-02-01 20:30:00,
2014-02-01 15:35:00,58.5,0.0,30.07,West,270,1.0,4.0,0,0.00,,,0.00,Weather View 32 v70,2014-02-01 20:35:00,
2014-02-01 15:41:00,58.5,0.0,30.04,ESE,113,2.0,7.0,0,0.00,,,0.00,Weather View 32 v70,2014-02-01 20:41:00,
2014-02-01 15:46:00,58.5,0.0,30.06,East,90,2.0,7.0,0,0.00,,,0.00,Weather View 32 v70,2014-02-01 20:46:00,
2014-02-01 15:51:00,58.3,0.0,30.06,North,0,1.0,7.0,0,0.00,,,0.00,Weather View 32 v70,2014-02-01 20:51:00,
2014-02-01 15:56:00,57.7,0.0,30.04,North,0,1.0,7.0,0,0.00,,,0.00,Weather View 32 v70,2014-02-01 20:56:00,
2014-02-01 16:01:00,57.7,0.0,30.04,North,0,4.0,7.0,0,0.00,,,0.00,Weather View 32 v70,2014-02-01 21:01:00,
2014-02-01 16:06:00,57.0,0.0,30.04,North,0,3.0,7.0,0,0.00,,,0.00,Weather View 32 v70,2014-02-01 21:06:00,
2014-02-01 16:11:00,56.7,0.0,30.05,NNW,338,0.0,7.0,0,0.00,,,0.00,Weather View 32 v70,2014-02-01 21:11:00,
2014-02-01 16:16:00,55.9,0.0,30.06,North,0,0.0,7.0,0,0.00,,,0.00,Weather View 32 v70,2014-02-01 21:16:00,
2014-02-01 16:21:00,55.4,0.0,30.07,SE,135,1.0,7.0,0,0.00,,,0.00,Weather View 32 v70,2014-02-01 21:21:00,
2014-02-01 16:26:00,55.2,0.0,30.08,North,0,1.0,7.0,0,0.00,,,0.00,Weather View 32 v70,2014-02-01 21:26:00,
2014-02-01 16:31:00,55.0,0.0,30.05,West,270,0.0,7.0,0,0.00,,,0.00,Weather View 32 v70,2014-02-01 21:31:00,
2014-02-01 16:36:00,54.9,0.0,30.06,West,270,0.0,7.0,0,0.00,,,0.00,Weather View 32 v70,2014-02-01 21:36:00,
2014-02-01 16:41:00,54.5,0.0,30.05,West,270,0.0,7.0,0,0.00,,,0.00,Weather View 32 v70,2014-02-01 21:41:00,
2014-02-01 16:46:00,54.3,0.0,30.07,West,270,0.0,7.0,0,0.00,,,0.00,Weather View 32 v70,2014-02-01 21:46:00,
2014-02-01 16:51:00,53.8,0.0,30.05,West,270,0.0,5.0,0,0.00,,,0.00,Weather View 32 v70,2014-02-01 21:51:00,
2014-02-01 16:56:00,53.8,0.0,30.08,North,0,0.0,5.0,0,0.00,,,0.00,Weather View 32 v70,2014-02-01 21:56:00,
2014-02-01 17:01:00,53.6,0.0,30.06,North,0,0.0,5.0,0,0.00,,,0.00,Weather View 32 v70,2014-02-01 22:01:00,
2014-02-01 17:06:00,53.4,0.0,30.07,North,0,2.0,4.0,0,0.00,,,0.00,Weather View 32 v70,2014-02-01 22:06:00,
2014-02-01 17:11:00,53.1,0.0,30.05,West,270,0.0,4.0,0,0.00,,,0.00,Weather View 32 v70,2014-02-01 22:11:00,
2014-02-01 17:16:00,53.2,0.0,30.07,West,270,0.0,4.0,0,0.00,,,0.00,Weather View 32 v70,2014-02-01 22:16:00,
2014-02-01 17:21:00,52.9,0.0,30.08,West,270,0.0,4.0,0,0.00,,,0.00,Weather View 32 v70,2014-02-01 22:21:00,
2014-02-01 17:26:00,52.9,0.0,30.07,West,270,0.0,4.0,0,0.00,,,0.00,Weather View 32 v70,2014-02-01 22:26:00,
2014-02-01 17:31:00,52.2,0.0,30.06,West,270,1.0,4.0,0,0.00,,,0.00,Weather View 32 v70,2014-02-01 22:31:00,
2014-02-01 17:36:00,52.2,0.0,30.09,SE,135,1.0,4.0,0,0.00,,,0.00,Weather View 32 v70,2014-02-01 22:36:00,
2014-02-01 17:41:00,51.6,0.0,30.07,West,270,0.0,4.0,0,0.00,,,0.00,Weather View 32 v70,2014-02-01 22:41:00,
2014-02-01 17:46:00,51.6,0.0,30.06,West,270,0.0,3.0,0,0.00,,,0.00,Weather View 32 v70,2014-02-01 22:46:00,
2014-02-01 17:51:00,51.6,0.0,30.06,West,270,0.0,3.0,0,0.00,,,0.00,Weather View 32 v70,2014-02-01 22:51:00,
2014-02-01 17:56:00,51.3,0.0,30.07,North,0,0.0,3.0,0,0.00,,,0.00,Weather View 32 v70,2014-02-01 22:56:00,
2014-02-01 18:01:00,50.7,0.0,30.06,West,270,0.0,3.0,0,0.00,,,0.00,Weather View 32 v70,2014-02-01 23:01:00,
2014-02-01 18:06:00,50.4,0.0,30.06,West,270,0.0,3.0,0,0.00,,,0.00,Weather View 32 v70,2014-02-01 23:06:00,
2014-02-01 18:11:00,50.0,0.0,30.05,West,270,0.0,3.0,0,0.00,,,0.00,Weather View 32 v70,2014-02-01 23:11:00,
2014-02-01 18:16:00,49.8,0.0,30.06,West,270,0.0,3.0,0,0.00,,,0.00,Weather View 32 v70,2014-02-01 23:16:00,
2014-02-01 18:21:00,49.8,0.0,30.06,West,270,0.0,3.0,0,0.00,,,0.00,Weather View 32 v70,2014-02-01 23:21:00,
2014-02-01 18:26:00,49.8,0.0,30.07,West,270,0.0,3.0,0,0.00,,,0.00,Weather View 32 v70,2014-02-01 23:26:00,
2014-02-01 18:31:00,49.8,0.0,30.07,West,270,0.0,3.0,0,0.00,,,0.00,Weather View 32 v70,2014-02-01 23:31:00,
2014-02-01 18:36:00,49.6,0.0,30.05,West,270,0.0,2.0,0,0.00,,,0.00,Weather View 32 v70,2014-02-01 23:36:00,
2014-02-01 18:41:00,49.5,0.0,30.06,West,270,0.0,2.0,0,0.00,,,0.00,Weather View 32 v70,2014-02-01 23:41:00,
2014-02-01 18:46:00,48.9,0.0,30.05,West,270,0.0,2.0,0,0.00,,,0.00,Weather View 32 v70,2014-02-01 23:46:00,
2014-02-01 18:51:00,48.6,0.0,30.05,West,270,0.0,2.0,0,0.00,,,0.00,Weather View 32 v70,2014-02-01 23:51:00,
2014-02-01 18:56:00,48.4,0.0,30.05,West,270,0.0,2.0,0,0.00,,,0.00,Weather View 32 v70,2014-02-01 23:56:00,
2014-02-01 19:01:00,48.4,0.0,30.04,West,270,0.0,1.0,0,0.00,,,0.00,Weather View 32 v70,2014-02-02 00:01:00,
2014-02-01 19:06:00,48.2,0.0,30.04,West,270,0.0,0.0,0,0.00,,,0.00,Weather View 32 v70,2014-02-02 00:06:00,
2014-02-01 19:11:00,48.2,0.0,30.03,West,270,0.0,0.0,0,0.00,,,0.00,Weather View 32 v70,2014-02-02 00:11:00,
2014-02-01 19:16:00,48.2,0.0,30.04,West,270,0.0,0.0,0,0.00,,,0.00,Weather View 32 v70,2014-02-02 00:16:00,
2014-02-01 19:21:00,48.0,0.0,30.03,West,270,0.0,0.0,0,0.00,,,0.00,Weather View 32 v70,2014-02-02 00:21:00,
2014-02-01 19:26:00,47.8,0.0,30.04,West,270,0.0,0.0,0,0.00,,,0.00,Weather View 32 v70,2014-02-02 00:26:00,
2014-02-01 19:31:00,47.8,0.0,30.03,West,270,0.0,0.0,0,0.00,,,0.00,Weather View 32 v70,2014-02-02 00:31:00,
2014-02-01 19:36:00,47.8,0.0,30.04,West,270,0.0,0.0,0,0.00,,,0.00,Weather View 32 v70,2014-02-02 00:36:00,
2014-02-01 19:41:00,48.0,0.0,30.03,West,270,0.0,0.0,0,0.00,,,0.00,Weather View 32 v70,2014-02-02 00:41:00,
2014-02-01 19:46:00,48.2,0.0,30.04,West,270,0.0,0.0,0,0.00,,,0.00,Weather View 32 v70,2014-02-02 00:46:00,
2014-02-01 19:51:00,48.2,0.0,30.03,West,270,0.0,0.0,0,0.00,,,0.00,Weather View 32 v70,2014-02-02 00:51:00,
2014-02-01 19:56:00,48.2,0.0,30.03,West,270,0.0,1.0,0,0.00,,,0.00,Weather View 32 v70,2014-02-02 00:56:00,
2014-02-01 20:01:00,47.8,0.0,30.01,West,270,0.0,1.0,0,0.00,,,0.00,Weather View 32 v70,2014-02-02 01:01:00,
2014-02-01 20:06:00,48.2,0.0,30.03,West,270,0.0,1.0,0,0.00,,,0.00,Weather View 32 v70,2014-02-02 01:06:00,
2014-02-01 20:11:00,48.2,0.0,30.03,West,270,1.0,3.0,0,0.00,,,0.00,Weather View 32 v70,2014-02-02 01:11:00,
2014-02-01 20:16:00,48.2,0.0,30.02,North,0,2.0,3.0,0,0.00,,,0.00,Weather View 32 v70,2014-02-02 01:16:00,
2014-02-01 20:21:00,48.2,0.0,30.03,West,270,0.0,3.0,0,0.00,,,0.00,Weather View 32 v70,2014-02-02 01:21:00,
2014-02-01 20:26:00,48.2,0.0,30.03,West,270,0.0,4.0,0,0.00,,,0.00,Weather View 32 v70,2014-02-02 01:26:00,
2014-02-01 20:31:00,48.2,0.0,30.02,West,270,0.0,4.0,0,0.00,,,0.00,Weather View 32 v70,2014-02-02 01:31:00,
2014-02-01 20:36:00,48.0,0.0,30.03,West,270,0.0,4.0,0,0.00,,,0.00,Weather View 32 v70,2014-02-02 01:36:00,
2014-02-01 20:41:00,48.2,0.0,30.03,West,270,0.0,4.0,0,0.00,,,0.00,Weather View 32 v70,2014-02-02 01:41:00,
2014-02-01 20:46:00,48.2,0.0,30.04,West,270,1.0,4.0,0,0.00,,,0.00,Weather View 32 v70,2014-02-02 01:46:00,
2014-02-01 20:51:00,48.0,0.0,30.03,West,270,0.0,4.0,0,0.00,,,0.00,Weather View 32 v70,2014-02-02 01:51:00,
2014-02-01 20:56:00,48.0,0.0,30.03,West,270,0.0,4.0,0,0.00,,,0.00,Weather View 32 v70,2014-02-02 01:56:00,
2014-02-01 21:01:00,48.0,0.0,30.02,North,0,0.0,4.0,0,0.00,,,0.00,Weather View 32 v70,2014-02-02 02:01:00,
2014-02-01 21:06:00,48.0,0.0,30.03,West,270,0.0,4.0,0,0.00,,,0.00,Weather View 32 v70,2014-02-02 02:06:00,
2014-02-01 21:11:00,47.8,0.0,30.02,West,270,0.0,4.0,0,0.00,,,0.00,Weather View 32 v70,2014-02-02 02:11:00,
2014-02-01 21:16:00,47.8,0.0,30.03,North,0,3.0,4.0,0,0.00,,,0.00,Weather View 32 v70,2014-02-02 02:16:00,
2014-02-01 21:21:00,47.8,0.0,30.02,North,0,2.0,4.0,0,0.00,,,0.00,Weather View 32 v70,2014-02-02 02:21:00,
2014-02-01 21:26:00,47.8,0.0,30.02,West,270,1.0,4.0,0,0.00,,,0.00,Weather View 32 v70,2014-02-02 02:26:00,
2014-02-01 21:31:00,47.7,0.0,30.02,West,270,0.0,4.0,0,0.00,,,0.00,Weather View 32 v70,2014-02-02 02:31:00,
2014-02-01 21:36:00,47.7,0.0,30.03,North,0,0.0,4.0,0,0.00,,,0.00,Weather View 32 v70,2014-02-02 02:36:00,
2014-02-01 21:41:00,47.5,0.0,30.02,North,0,0.0,4.0,0,0.00,,,0.00,Weather View 32 v70,2014-02-02 02:41:00,
2014-02-01 21:46:00,47.7,0.0,30.02,West,270,0.0,4.0,0,0.00,,,0.00,Weather View 32 v70,2014-02-02 02:46:00,
2014-02-01 21:51:00,47.5,0.0,30.01,West,270,0.0,5.0,0,0.00,,,0.00,Weather View 32 v70,2014-02-02 02:51:00,
2014-02-01 21:56:00,47.1,0.0,30.02,West,270,0.0,5.0,0,0.00,,,0.00,Weather View 32 v70,2014-02-02 02:56:00,
2014-02-01 22:01:00,47.1,0.0,30.01,North,0,1.0,5.0,0,0.00,,,0.00,Weather View 32 v70,2014-02-02 03:01:00,
2014-02-01 22:06:00,47.1,0.0,30.03,North,0,1.0,5.0,0,0.00,,,0.00,Weather View 32 v70,2014-02-02 03:06:00,
2014-02-01 22:11:00,47.1,0.0,30.01,North,0,0.0,5.0,0,0.00,,,0.00,Weather View 32 v70,2014-02-02 03:11:00,
2014-02-01 22:16:00,46.9,0.0,30.01,North,0,2.0,5.0,0,0.00,,,0.00,Weather View 32 v70,2014-02-02 03:16:00,
2014-02-01 22:21:00,46.9,0.0,30.02,North,0,2.0,5.0,0,0.00,,,0.00,Weather View 32 v70,2014-02-02 03:21:00,
2014-02-01 22:26:00,46.9,0.0,30.02,North,0,1.0,5.0,0,0.00,,,0.00,Weather View 32 v70,2014-02-02 03:26:00,
2014-02-01 22:31:00,46.8,0.0,30.02,West,270,1.0,5.0,0,0.00,,,0.00,Weather View 32 v70,2014-02-02 03:31:00,
2014-02-01 22:36:00,46.6,0.0,30.01,West,270,0.0,5.0,0,0.00,,,0.00,Weather View 32 v70,2014-02-02 03:36:00,
2014-02-01 22:41:00,46.6,0.0,30.02,West,270,0.0,5.0,0,0.00,,,0.00,Weather View 32 v70,2014-02-02 03:41:00,
2014-02-01 22:46:00,46.6,0.0,30.01,North,0,2.0,5.0,0,0.00,,,0.00,Weather View 32 v70,2014-02-02 03:46:00,
2014-02-01 22:51:00,46.4,0.0,30.00,West,270,0.0,5.0,0,0.00,,,0.00,Weather View 32 v70,2014-02-02 03:51:00,
2014-02-01 22:56:00,46.6,0.0,30.02,North,0,4.0,5.0,0,0.00,,,0.00,Weather View 32 v70,2014-02-02 03:56:00,
2014-02-01 23:01:00,46.6,0.0,30.02,West,270,0.0,5.0,0,0.00,,,0.00,Weather View 32 v70,2014-02-02 04:01:00,
2014-02-01 23:06:00,46.4,0.0,30.01,West,270,1.0,5.0,0,0.00,,,0.00,Weather View 32 v70,2014-02-02 04:06:00,
2014-02-01 23:11:00,46.4,0.0,30.01,West,270,1.0,5.0,0,0.00,,,0.00,Weather View 32 v70,2014-02-02 04:11:00,
2014-02-01 23:16:00,46.4,0.0,30.01,West,270,0.0,5.0,0,0.00,,,0.00,Weather View 32 v70,2014-02-02 04:16:00,
2014-02-01 23:21:00,46.2,0.0,30.01,North,0,4.0,5.0,0,0.00,,,0.00,Weather View 32 v70,2014-02-02 04:21:00,
2014-02-01 23:26:00,46.2,0.0,30.01,West,270,1.0,6.0,0,0.00,,,0.00,Weather View 32 v70,2014-02-02 04:26:00,
2014-02-01 23:31:00,46.2,0.0,30.01,North,0,2.0,6.0,0,0.00,,,0.00,Weather View 32 v70,2014-02-02 04:31:00,
2014-02-01 23:36:00,46.0,0.0,30.00,West,270,1.0,6.0,0,0.00,,,0.00,Weather View 32 v70,2014-02-02 04:36:00,
2014-02-01 23:41:00,46.2,0.0,30.01,West,270,0.0,6.0,0,0.00,,,0.00,Weather View 32 v70,2014-02-02 04:41:00,
2014-02-01 23:46:00,46.2,0.0,30.01,West,270,3.0,6.0,0,0.00,,,0.00,Weather View 32 v70,2014-02-02 04:46:00,
2014-02-01 23:51:00,46.2,0.0,30.00,West,270,0.0,6.0,0,0.00,,,0.00,Weather View 32 v70,2014-02-02 04:51:00,
2014-02-01 23:56:00,46.0,0.0,30.00,North,0,3.0,6.0,0,0.00,,,0.00,Weather View 32 v70,2014-02-02 04:56:00,